This is the latest recevied weather packets stored in our database for station/object IA5FYI-13. If no packets are shown the sender has not sent any weather packets the latest 10 day(s).
| Time | Temp. | Humidity | Pressure | Rain* | Wind** | Luminosity | Snow |
|---|---|---|---|---|---|---|---|
| 1777949709 | 17.22° C | 95% | 1010.8 hPa | 1.27 mm | - | - | - |
| 1777949412 | 17.22° C | 95% | 1010.8 hPa | 1.27 mm | - | - | - |
| 1777949112 | 17.22° C | 94% | 1010.8 hPa | 1.27 mm | - | - | - |
| 1777948812 | 17.22° C | 94% | 1011.2 hPa | 1.27 mm | - | - | - |
| 1777948509 | 17.22° C | 94% | 1011.2 hPa | 1.27 mm | - | - | - |
| 1777948221 | 17.22° C | 94% | 1011.2 hPa | 1.27 mm | - | - | - |
| 1777947909 | 17.22° C | 94% | 1011.2 hPa | 1.27 mm | - | - | - |
| 1777947612 | 17.22° C | 94% | 1011.2 hPa | 1.27 mm | - | - | - |
| 1777947312 | 17.22° C | 94% | 1011.2 hPa | 0.25 mm | - | - | - |
| 1777947012 | 17.22° C | 94% | 1011.2 hPa | 0 mm | - | - | - |
| 1777946709 | 17.22° C | 94% | 1011.5 hPa | 0 mm | - | - | - |
| 1777946430 | 17.22° C | 94% | 1011.5 hPa | 1.02 mm | - | - | - |
| 1777945813 | 17.22° C | 94% | 1011.5 hPa | 0.76 mm | - | - | - |
| 1777945512 | 17.22° C | 94% | 1011.5 hPa | 0.76 mm | - | - | - |
| 1777945212 | 17.22° C | 94% | 1011.5 hPa | 0.51 mm | - | - | - |
| 1777944909 | 17.22° C | 94% | 1011.5 hPa | 0.51 mm | - | - | - |
| 1777944621 | 17.22° C | 94% | 1011.9 hPa | 0.51 mm | - | - | - |
| 1777944308 | 17.22° C | 94% | 1011.9 hPa | 0.51 mm | - | - | - |
| 1777944012 | 17.22° C | 94% | 1011.9 hPa | 0.51 mm | - | - | - |
| 1777943412 | 17.22° C | 94% | 1011.9 hPa | 0 mm | - | - | - |
| 1777943109 | 17.22° C | 94% | 1012.2 hPa | 0 mm | - | - | - |
| 1777942831 | 17.22° C | 94% | 1011.9 hPa | 0.51 mm | - | - | - |
| 1777942212 | 17.22° C | 94% | 1012.2 hPa | 0.51 mm | - | - | - |
| 1777941912 | 17.22° C | 94% | 1012.2 hPa | 0.51 mm | - | - | - |
| 1777941612 | 17.22° C | 94% | 1012.5 hPa | 0.51 mm | - | - | - |
* Rain latest hour (hover to see other rain measurements)
** Current wind speed in m/s (hover to see current wind gust speed)